Date,TemperatureHighF,TemperatureAvgF,TemperatureLowF,DewpointHighF,DewpointAvgF,DewpointLowF,HumidityHigh,HumidityAvg,HumidityLow,PressureMaxIn,PressureMinIn,WindSpeedMaxMPH,WindSpeedAvgMPH,GustSpeedMaxMPH,PrecipitationSumIn
2013-7-1,89.8,70.5,48.0,49.6,43.0,29.4,89,45,13,29.99,29.75,18,1,18,0.00
2013-7-2,88.0,70.5,50.2,49.4,44.6,36.1,84,44,18,29.92,29.69,20,1,22,0.00
2013-7-3,89.5,66.3,44.3,47.4,42.4,31.8,88,48,15,29.88,29.65,24,2,24,0.00
2013-7-4,88.5,70.1,48.8,51.5,46.5,38.7,86,48,19,29.82,29.57,8,1,8,0.00
2013-7-5,87.5,72.2,56.7,57.9,51.8,44.9,87,53,27,29.69,29.47,17,1,17,0.07
2013-7-6,86.5,72.1,55.0,56.4,51.5,44.4,92,53,25,29.72,29.55,21,2,21,0.00
2013-7-7,91.3,72.8,53.0,52.7,48.4,43.0,86,47,20,29.85,29.58,20,1,20,0.20
2013-7-8,89.8,70.3,50.9,56.4,48.7,31.4,96,55,14,29.89,29.74,22,1,27,0.03
2013-7-9,91.7,72.3,50.2,50.1,44.5,35.2,82,43,16,29.97,29.77,16,1,16,0.00
2013-7-10,94.5,73.0,49.9,52.2,44.8,29.6,85,44,12,29.90,29.62,20,1,20,0.00
2013-7-11,94.8,73.0,48.4,53.6,44.9,34.2,83,43,12,29.81,29.53,24,2,24,0.00
2013-7-12,88.0,68.9,55.8,60.9,54.4,47.8,94,65,26,29.83,29.57,18,1,18,0.07
2013-7-13,85.0,69.3,57.3,62.4,56.3,50.5,95,67,32,29.88,29.72,20,1,20,0.03
2013-7-14,87.8,69.6,55.3,59.2,54.4,46.5,95,63,28,29.96,29.73,20,2,20,0.07
2013-7-15,91.8,70.7,51.8,55.5,51.7,42.3,92,57,19,29.84,29.59,18,1,18,0.00
2013-7-16,91.5,72.5,51.2,55.8,51.3,42.4,94,53,19,29.84,29.60,22,2,22,0.00
2013-7-17,89.7,73.1,55.3,58.9,53.0,43.0,85,53,24,29.88,29.68,22,2,22,0.00
2013-7-18,88.7,70.4,54.0,58.1,52.9,46.9,92,58,28,29.93,29.70,22,1,22,0.00
2013-7-19,91.3,72.5,55.2,57.4,50.5,32.4,90,53,13,29.91,29.64,9,1,14,0.00
2013-7-20,91.4,72.1,50.6,53.9,44.2,28.7,91,45,11,29.80,29.54,15,1,15,0.00
2013-7-21,94.0,71.4,45.5,47.6,38.1,22.9,83,39,9,29.77,29.57,16,1,16,0.00
2013-7-22,93.8,73.7,52.2,48.4,37.8,22.8,74,33,9,29.78,29.58,14,1,14,0.00
2013-7-23,95.0,70.5,43.9,44.8,35.7,21.8,80,36,8,29.87,29.66,11,1,11,0.00
2013-7-24,82.0,70.4,54.1,49.1,43.6,32.0,73,41,24,29.83,29.69,32,2,32,0.00
2013-7-25,85.5,68.7,54.6,61.7,50.7,44.7,91,57,25,29.95,29.75,19,1,19,0.03
2013-7-26,90.8,68.9,48.1,52.4,46.1,35.0,94,53,17,30.03,29.79,11,1,11,0.00
2013-7-27,85.0,64.5,48.4,59.4,48.9,42.0,83,61,27,29.92,29.67,16,1,16,0.14
2013-7-28,75.3,62.0,55.9,61.1,56.2,51.6,97,83,49,29.80,29.68,19,1,19,0.55
2013-7-29,76.8,62.8,54.9,59.5,54.4,48.9,97,76,49,29.99,29.81,20,1,20,0.24
2013-7-30,82.3,64.8,45.9,51.7,48.1,43.1,97,61,28,30.14,29.97,19,2,19,0.00
2013-7-31,85.8,65.8,45.5,55.2,46.1,36.8,95,57,21,30.16,29.87,11,1,11,0.00